Location: Eisingen in Unterfranken
(49.7591°N, 9.8347°E)
Time: 13:49:34
(UTC+01:00)

N. Korean satellite - Pass Details

Date: 06 December 2022
Orbit: 407 x 441 km, 97.3° (Epoch: 05 February)

Event Time Altitude Azimuth Distance (km) Brightness Sun altitude
Rises 06:11:28 0° 8° (N) 2,523 10.1 -17.0°
Reaches altitude 10° 06:13:34 10° 2° (N) 1,636 9.1 -16.7°
Maximum altitude 06:16:58 47° 288° (WNW) 625 6.6 -16.1°
Drops below altitude 10° 06:20:16 10° 214° (SW) 1,598 9.0 -15.6°
Sets 06:22:19 0° 208° (SSW) 2,457 10.0 -15.3°
